sat.trackr.live / text

‹ back to catalog

STARLINK-36569

NORAD 67553 · 2026-014X

PAYLOAD ACTIVE UNKNOWN

§ Identity

Operator
Country
US
Launch date
2026-01-22
Launch site
AFWTR
Launch vehicle
Mass (kg)
RCS (m²)

Purposes: comms

External: N2YO · Heavens-Above · Gunter

§ Orbital elements

Epoch: 2026-09-19T22:26:47.642496Z

Period
93.91 min
Inclination
97.2857°
Eccentricity
0.0002056
Mean motion
15.33452208 rev/d
Perigee alt
464.1 km
Apogee alt
466.9 km
Semi-major
6,843.7 km
B*
5.3291e-4
RAAN
148.3409°
Arg perigee
93.8218°
Mean anomaly
266.3260°
Rev number
3,854

§ Raw data

STARLINK-365691 67553U 26014X   26262.93527364  .00017173  00000+0  53291-3 0  99972 67553  97.2857 148.3409 0002056  93.8218 266.3260 15.33452208 38547

JSON: /api/v1/satellites/67553 · /tle

For live sub-satellite position, see the globe view (requires WebGL).

§ Visibility from observer

Set your observer location to see the next 7 days of passes ≥ 10°. The values pass through the URL so the page stays shareable.

No JS? Fill the form by hand. The geolocation button needs JavaScript.